RH
39 38 30 38 62 36 30 28 22 26 27 23 24 26 29 31 36 50 29 35 48 51 42 60 79 71 73 76 73 74 76 75 76 75 74 74 74 75 76 75 74 72 72 73 74 74 73 73 74
26 32 37 39 54 35 36 24 27 27 27 26 27 31 28 35 28 31 31 37 34 42 35 41 78 74 71 76 74 73 73 74 75 74 74 74 74 74 74 72 72 72 71 71 73 74 74 75 76
34 32 38 35 40 34 34 25 28 27 27 35 32 28 28 35 29 29 30 33 28 36 33 53 74 76 76 77 77 74 74 73 74 72 67 68 72 74 72 70 69 70 71 71 72 73 73 72 73
25 32 44 55 38 27 24 24 27 30 28 28 28 34 27 25 26 26 26 26 27 35 42 62 74 75 73 75 72 75 73 74 74 73 74 72 72 72 73 71 71 71 70 74 74 73 71 69 71
24 30 41 38 33 25 23 25 28 30 31 30 24 35 35 28 24 25 26 24 30 32 33 44 74 75 74 71 73 74 74 74 74 74 73 70 72 69 70 71 71 70 70 72 70 69 68 70 71
38 30 63 50 38 27 27 26 26 34 29 28 29 34 37 27 27 26 24 26 26 27 32 41 71 74 73 72 73 74 74 73 73 72 72 71 72 71 69 71 70 68 70 72 74 72 70 68 70
38 38 80 35 34 33 32 25 31 29 27 26 24 37 34 29 26 24 24 23 23 25 32 35 42 64 72 73 73 72 71 72 72 72 73 73 72 68 67 70 69 71 70 71 71 72 72 70 67
40 35 36 47 29 40 30 29 26 25 29 21 22 34 36 30 26 24 25 24 31 32 36 48 35 38 45 49 72 71 72 72 72 71 70 70 67 65 66 71 69 68 68 68 70 71 71 72 71
31 51 73 42 42 37 32 32 28 23 25 24 24 23 26 27 25 25 27 28 28 33 40 37 54 51 66 51 59 69 70 72 72 68 69 68 40 45 54 68 66 64 64 65 66 68 70 72 72
38 72 53 42 42 46 39 32 30 28 26 28 26 27 28 28 28 28 28 32 31 30 40 65 44 37 45 41 56 54 51 52 50 42 47 37 46 47 46 64 72 66 68 68 67 67 66 67 46
46 62 39 39 45 56 53 35 28 28 37 25 29 32 29 29 28 26 26 26 27 26 37 34 37 56 49 46 48 42 36 36 42 48 42 44 40 42 36 47 48 46 60 44 53 51 43 35 31
43 41 41 38 44 52 52 55 33 32 46 23 25 27 28 30 28 25 26 26 26 29 32 33 36 47 54 39 35 44 45 33 35 40 46 47 36 41 41 37 42 42 32 40 38 32 37 36 34
42 39 46 39 36 41 40 44 56 33 27 21 24 27 28 30 26 25 24 25 27 30 32 32 46 68 65 48 49 41 36 34 35 39 40 35 34 47 41 44 37 47 30 32 33 34 35 36 33
36 32 39 38 38 40 36 41 45 29 27 24 26 26 25 29 25 27 26 28 30 31 32 34 44 67 45 56 54 42 38 42 40 58 41 46 40 46 41 42 36 34 32 30 32 39 37 30 30
27 38 46 52 48 50 36 48 45 32 28 29 26 25 24 26 26 28 27 29 29 31 34 38 43 46 49 52 48 39 32 29 33 53 49 46 44 52 48 39 58 34 42 44 40 40 35 28 26
26 28 46 44 48 51 59 67 54 41 33 31 31 24 25 29 26 27 26 27 30 33 40 41 33 43 50 56 49 38 42 36 56 60 41 48 51 50 56 40 41 39 42 33 31 33 30 28 27
23 32 36 46 45 47 52 90 77 68 40 38 40 24 24 30 32 28 26 26 29 35 41 43 39 56 64 53 51 58 43 56 50 55 51 49 48 50 48 44 41 51 33 32 45 30 32 31 27
18 21 22 38 48 48 48 56 55 66 57 71 34 30 24 27 32 28 26 26 28 36 41 42 39 53 59 47 67 68 44 48 41 64 64 50 45 49 54 40 45 55 32 51 60 58 35 34 28
17 21 22 32 44 46 44 45 50 48 56 47 50 38 23 26 25 29 27 27 29 35 42 45 46 56 53 46 44 55 46 62 62 51 50 51 47 51 56 42 48 73 51 70 45 44 50 40 35
15 18 21 33 40 44 37 42 37 50 48 37 75 38 27 25 25 29 27 26 29 36 43 48 50 59 60 45 65 72 64 67 61 51 49 47 48 52 48 57 45 66 42 55 50 66 63 32 34
14 16 18 24 40 38 39 40 39 38 46 40 46 49 26 25 28 27 28 27 29 36 42 49 54 61 61 73 48 58 69 54 41 44 44 46 48 49 53 53 56 52 54 49 50 52 56 92 37
13 12 15 20 35 38 42 35 39 37 44 46 39 43 31 28 24 25 26 28 28 35 37 46 53 60 57 61 66 60 54 50 44 46 48 45 48 48 47 50 53 57 48 61 47 40 57 58 65
11 11 14 18 25 26 28 37 24 29 45 46 41 35 39 30 27 25 24 28 27 31 36 40 54 62 60 63 75 54 60 65 53 67 69 57 55 50 44 50 54 57 47 54 59 56 56 49 44
8 13 16 20 23 30 21 26 23 34 37 38 39 39 41 28 28 24 26 28 32 29 37 38 54 66 66 64 61 68 74 72 75 51 58 47 42 46 51 48 55 57 55 56 53 57 58 61 59
10 13 21 25 23 23 22 22 21 29 30 27 34 38 40 37 27 26 27 28 34 33 37 38 51 62 60 63 58 58 58 58 59 61 48 48 59 65 63 58 57 52 61 57 57 60 63 57 54
12 12 16 29 19 40 26 26 26 42 21 20 24 30 36 36 30 28 29 29 39 39 36 40 48 58 57 58 61 62 60 48 46 54 43 43 43 40 56 54 54 56 56 55 57 51 48 54 47
15 17 10 14 12 14 25 27 19 26 21 22 24 29 38 36 35 36 28 25 36 38 39 42 48 54 53 51 57 63 61 58 52 66 58 49 55 46 55 54 56 55 55 56 59 52 52 54 54
14 31 24 14 26 28 18 23 25 31 23 24 27 31 34 37 37 38 32 29 28 32 37 39 44 52 51 47 49 51 53 58 58 71 63 58 69 62 59 60 57 58 57 57 66 57 57 59 50
16 17 26 24 26 32 26 33 78 26 28 30 31 30 29 32 32 31 59 34 30 34 35 43 44 49 51 49 52 54 51 51 54 54 59 64 66 65 64 66 69 65 62 62 73 75 68 65 62
14 24 20 19 31 39 34 48 49 24 20 32 40 32 38 34 38 46 38 43 40 37 37 41 45 45 49 50 57 56 54 52 48 54 52 67 70 72 73 67 67 64 65 68 73 70 58 71 61
Wind_Speed
11 15 9 5 6 6 10 12 8 8 8 14 3 12 16 18 11 13 19 17 19 12 15 13 11 13 13 11 7 12 13 14 13 13 14 13 13 15 14 15 14 13 12 14 14 15 15 14 14
15 3 6 7 3 4 8 6 11 11 11 7 11 9 17 17 19 19 18 17 17 14 14 16 11 13 12 13 10 12 14 12 13 13 13 13 14 15 14 14 12 12 11 11 14 14 15 15 15
17 3 8 6 2 10 10 10 12 10 9 6 6 13 11 17 16 16 24 18 16 18 15 15 13 13 13 12 12 13 12 13 13 13 13 13 13 15 14 13 13 13 14 13 13 14 16 15 15
7 7 5 4 4 10 14 12 11 8 6 4 15 13 18 13 12 19 22 21 17 20 17 16 13 13 12 13 12 12 13 12 13 13 12 12 14 14 14 12 13 13 14 14 16 16 15 15 13
9 8 6 5 7 7 13 11 9 7 7 4 13 18 13 9 17 17 15 15 14 14 20 16 12 12 11 12 12 12 12 12 14 13 12 12 12 13 12 12 12 13 14 14 16 15 14 12 12
6 4 5 3 8 12 12 7 7 5 7 6 16 15 13 14 16 15 14 14 10 10 19 14 11 11 11 11 11 12 12 12 13 11 11 11 11 11 10 12 12 13 14 15 14 14 13 12 11
10 3 5 4 11 12 9 2 13 6 8 11 14 15 13 16 14 14 9 10 10 11 14 14 14 12 11 11 12 12 12 11 12 12 12 13 11 10 10 11 11 12 13 12 11 10 10 10 10
6 8 1 3 8 13 9 7 4 4 13 11 6 12 16 17 14 12 11 10 14 7 12 6 16 14 15 13 12 13 13 12 12 11 11 13 11 10 10 10 10 11 10 10 10 8 9 9 8
5 4 6 7 14 13 4 8 8 3 10 6 3 14 20 18 14 13 11 13 11 13 6 11 6 12 9 14 11 13 14 15 15 11 9 12 10 10 10 12 9 8 8 7 6 5 7 9 9
4 4 3 7 10 12 4 3 5 8 10 9 12 20 19 17 15 14 13 13 13 11 17 11 11 13 10 11 9 11 12 9 8 8 6 5 9 9 10 9 6 6 6 7 7 10 11 12 8
3 2 6 9 10 6 4 6 5 5 3 12 15 17 19 16 14 13 13 12 15 11 15 14 10 6 8 11 10 7 7 7 7 7 6 8 7 8 7 6 6 6 11 8 10 11 8 6 2
5 1 1 9 7 4 4 12 5 5 12 5 17 18 16 16 14 14 13 12 15 11 12 14 12 6 6 8 7 6 6 9 8 7 7 4 5 6 1 3 4 4 4 3 5 7 4 4 4
12 9 3 7 10 7 12 17 6 6 5 14 17 16 16 14 12 11 12 13 13 13 13 13 14 4 1 5 2 6 7 6 10 9 5 4 7 4 4 2 2 2 4 4 2 4 2 5 6
5 9 4 6 6 7 15 10 21 9 1 15 16 15 14 12 11 11 12 12 14 13 12 14 15 5 8 4 5 5 5 6 6 4 6 2 5 2 6 5 6 4 1 3 4 3 2 7 6
8 8 8 4 4 7 9 7 6 10 13 14 14 13 13 12 14 11 13 13 13 12 12 13 14 11 9 9 7 7 5 7 6 8 6 4 4 3 2 3 1 4 4 1 2 5 3 4 6
13 10 9 8 6 7 5 7 7 7 12 15 13 13 12 12 14 13 12 13 13 13 12 13 12 14 10 10 8 5 4 5 4 2 9 7 4 3 6 7 3 5 5 5 4 7 4 4 5
8 9 6 9 5 8 11 4 7 13 4 10 9 13 14 14 11 13 13 13 14 14 13 13 11 9 7 10 4 2 6 1 9 1 5 6 5 4 6 2 6 6 4 6 2 3 4 2 5
9 8 4 6 8 9 13 7 12 9 11 4 15 13 15 18 16 13 14 13 14 15 13 12 10 11 9 7 3 3 6 5 6 3 6 7 5 4 7 6 2 7 3 3 3 6 2 3 3
6 6 5 12 3 5 10 15 13 14 11 15 13 13 17 16 17 15 13 14 14 14 14 13 12 11 8 9 7 6 5 2 3 6 7 4 5 4 4 4 5 4 3 4 2 4 6 3 2
10 9 8 5 4 7 6 11 10 18 18 18 16 15 17 16 17 17 15 16 16 15 15 14 12 12 8 7 1 1 4 2 4 5 7 6 5 4 4 5 4 3 4 3 2 8 8 3 2
13 12 6 0 6 10 9 15 17 16 18 18 14 12 17 20 19 19 17 17 17 16 16 15 13 13 11 5 6 2 3 3 3 7 7 7 6 6 4 4 6 2 7 7 2 4 6 3 5
13 11 8 3 7 5 7 8 14 18 17 19 20 14 19 16 21 19 19 17 17 17 15 16 14 14 12 10 7 6 6 6 5 5 5 6 6 6 6 4 4 3 6 6 2 2 8 8 5
12 7 6 9 12 12 10 8 13 17 16 19 22 22 20 23 18 20 20 18 18 17 16 16 15 12 11 11 6 9 9 4 6 3 7 3 4 6 6 5 4 3 5 4 4 3 3 7 6
8 4 12 9 10 11 18 14 11 4 12 15 20 21 18 26 22 18 20 20 14 17 15 16 15 13 12 11 12 11 6 5 5 6 5 7 8 9 7 7 4 4 5 3 5 4 4 5 6
12 14 9 12 11 14 8 8 7 13 19 11 21 23 23 19 23 20 18 19 17 17 17 15 16 14 14 14 14 11 9 7 6 6 7 4 3 4 10 8 5 6 7 5 5 3 6 4 5
14 16 13 8 8 8 8 7 4 9 10 4 11 22 22 19 23 23 19 18 19 14 18 16 17 15 16 15 13 10 10 8 9 10 6 6 7 5 6 5 7 8 7 7 6 6 7 7 6
11 15 19 19 17 15 12 17 8 12 15 4 9 13 17 23 20 18 18 20 21 18 16 17 16 16 16 16 13 11 11 10 8 3 8 6 6 5 6 9 9 9 9 9 7 7 6 6 4
18 5 9 9 16 14 9 11 3 7 10 12 5 16 20 20 19 17 16 18 19 18 17 17 17 17 16 16 14 13 12 11 10 7 8 7 5 7 6 8 9 10 10 9 8 8 9 7 7
12 12 13 12 12 8 14 6 10 11 13 8 4 1 16 15 14 18 10 14 20 18 17 16 16 16 15 15 13 12 13 13 12 10 9 9 7 7 8 9 9 10 9 9 8 9 11 5 5
7 12 22 11 10 7 16 3 12 14 11 12 13 4 6 12 13 10 10 14 15 20 17 18 16 16 15 14 11 13 11 11 12 11 10 8 10 8 9 9 9 8 9 9 9 11 11 6 9
Wind_Direction
239 226 254 256 253 219 104 86 104 103 86 70 44 61 63 27 42 90 129 110 103 118 118 112 111 110 108 108 136 123 112 108 108 107 98 100 99 100 95 92 95 97 93 95 92 96 100 106 104
242 324 242 279 273 112 85 102 91 62 82 72 72 348 74 70 92 117 117 122 127 132 148 116 109 119 118 134 139 120 113 109 109 106 108 106 94 100 98 93 89 90 94 98 94 93 93 93 95
255 228 258 274 132 64 105 91 90 97 135 138 74 38 51 98 111 127 115 148 145 153 128 114 118 120 122 123 124 117 110 112 111 107 103 101 96 100 99 93 89 89 93 100 96 86 92 90 90
224 193 222 268 70 40 92 97 101 120 93 1 106 84 101 102 114 120 140 157 153 118 107 114 115 113 116 117 113 110 111 113 111 109 99 104 99 104 98 97 90 93 97 95 94 92 90 92 95
241 244 248 243 89 99 82 89 104 144 81 129 112 118 109 85 109 133 143 149 151 142 115 114 112 113 115 113 114 113 110 103 100 94 96 97 100 103 104 102 89 84 106 94 89 88 91 93 92
269 215 277 170 144 102 97 118 135 98 85 117 94 129 108 120 137 142 166 136 147 120 112 126 120 117 116 112 115 118 113 110 102 102 96 104 98 102 109 105 95 88 102 99 95 94 96 98 95
260 303 250 204 132 117 103 119 100 140 139 123 145 122 130 146 138 150 155 127 129 115 109 136 130 122 115 118 117 113 115 112 106 110 107 105 109 110 115 108 103 94 100 101 99 105 103 98 99
297 286 154 303 134 120 116 70 82 85 64 100 154 129 155 137 152 146 143 132 97 179 93 84 134 144 143 133 118 112 113 118 117 118 125 120 115 120 126 124 101 100 106 108 103 113 125 124 127
260 291 317 10 104 112 94 129 71 65 138 151 44 137 129 142 152 159 153 143 151 127 163 116 134 99 96 127 124 128 126 126 129 138 156 174 132 141 142 78 109 112 115 114 127 150 166 170 172
310 297 134 67 81 78 200 189 127 162 120 139 100 97 129 151 165 155 163 148 156 159 135 208 116 139 164 124 142 153 152 153 127 109 150 139 71 63 89 99 113 126 140 158 175 208 214 202 181
264 340 89 113 97 59 331 236 146 202 85 143 134 137 147 160 171 157 171 159 151 160 142 115 135 131 156 124 167 183 150 127 114 151 159 114 141 157 134 137 161 162 195 192 199 201 225 354 2
68 73 42 121 135 103 329 318 157 124 197 140 135 144 152 173 169 164 159 163 131 153 131 129 133 139 150 153 180 152 136 134 146 110 116 157 133 87 94 110 105 214 118 168 271 78 54 119 292
129 146 192 157 158 156 212 243 13 206 110 123 139 152 165 169 157 157 145 135 140 157 152 138 112 77 233 175 119 114 127 146 110 171 162 134 103 100 133 146 190 355 176 121 128 90 112 141 136
239 125 147 161 205 197 199 246 186 148 214 133 151 160 167 151 147 147 149 153 153 160 157 130 135 165 152 97 62 128 184 109 145 117 134 25 97 192 142 185 167 147 8 102 133 30 231 125 112
115 154 150 154 225 214 215 239 195 172 193 154 168 172 157 156 131 158 154 159 162 161 149 148 146 167 160 136 157 202 166 156 143 117 131 116 142 155 111 113 237 102 74 331 143 224 253 110 101
222 195 168 129 167 151 190 202 26 280 184 167 178 171 167 154 150 147 162 163 152 153 150 174 167 148 162 131 197 183 157 122 36 128 140 155 131 151 242 190 170 107 218 205 184 225 207 146 145
194 255 155 130 193 150 214 128 243 318 255 185 212 172 176 157 158 151 157 166 152 144 160 183 158 143 154 161 171 171 111 62 177 162 135 152 164 164 283 185 103 224 195 201 193 183 167 154 148
219 208 151 144 144 200 206 199 165 205 262 276 183 218 186 170 172 164 157 159 163 148 164 175 174 139 151 160 232 93 183 202 162 149 88 148 145 165 257 93 167 256 197 93 52 17 53 260 226
306 20 309 92 132 232 219 211 193 198 227 225 252 213 185 193 167 160 171 154 161 161 168 170 179 149 175 165 183 161 204 156 115 140 133 150 157 149 253 148 207 336 89 273 113 178 197 263 115
228 224 214 100 163 245 242 257 216 190 207 233 185 226 198 189 172 163 180 162 168 167 169 171 176 162 198 193 171 48 185 214 192 122 149 199 166 147 198 333 231 81 100 41 314 52 287 127 138
237 252 238 267 152 237 262 258 218 202 203 216 238 234 202 188 187 171 183 175 168 169 176 175 179 165 199 272 185 199 46 155 143 146 178 190 197 190 265 189 303 1 300 128 262 335 316 4 137
248 201 270 283 228 280 215 298 185 198 209 210 215 209 205 216 194 173 181 189 177 165 185 174 183 179 192 208 197 174 215 199 181 187 105 156 202 213 192 200 217 234 309 18 226 214 317 342 315
267 20 278 227 255 271 226 243 275 183 196 208 214 217 204 210 231 180 181 188 179 168 177 183 188 186 196 201 197 177 217 146 201 104 135 240 176 252 227 184 198 231 249 174 296 318 293 308 315
275 245 245 246 243 252 247 220 261 217 205 197 202 202 225 191 223 204 180 181 185 172 173 181 182 190 198 189 193 215 213 237 72 189 175 179 194 189 215 194 213 231 269 244 253 240 254 297 331
228 224 221 214 210 239 137 238 266 187 187 196 188 195 207 222 203 221 198 178 173 187 168 180 178 193 195 187 195 201 217 204 188 198 217 188 185 298 158 197 211 221 213 267 259 240 285 265 281
211 245 252 230 265 69 346 248 137 8 331 337 184 187 198 226 195 220 200 182 171 191 173 187 174 190 192 188 197 200 207 208 218 187 242 204 228 234 161 191 234 212 249 229 222 239 238 230 233
230 212 264 289 283 264 167 217 94 66 9 353 189 156 192 208 220 217 196 194 169 173 181 186 178 189 196 198 192 197 202 232 217 265 198 214 228 249 234 238 223 226 225 234 233 241 251 255 242
265 31 270 231 266 269 261 286 67 74 357 329 196 176 176 215 214 199 206 194 176 179 182 189 185 190 195 203 196 201 208 203 229 221 199 246 223 223 237 229 232 231 235 222 219 249 218 225 253
195 213 213 217 281 318 287 109 135 354 24 329 105 245 182 193 243 239 171 201 177 177 186 189 188 185 194 201 195 204 204 201 205 228 194 223 245 215 229 230 226 224 226 230 235 256 287 235 240
176 210 275 276 195 187 238 38 0 333 40 1 132 85 340 179 229 270 225 223 169 171 193 181 191 188 192 193 204 195 206 218 205 211 227 197 223 216 218 228 229 223 221 220 219 231 246 236 247